Overview Statistics Trail Chart Weather Telemetry Raw packets
 

This is the latest recevied weather packets stored in our database for station/object KD7AWQ. If no packets are shown the sender has not sent any weather packets the latest 10 day(s).

<< 49 50 51 52 53 54 55 >>
Time Temp. Humidity Pressure Rain* Wind** Luminosity Snow
1788089324 24.44° C 44% 1188.2 hPa 0 mm - 0 W/m² -
1788089020 24.44° C 45% 1188.4 hPa 0 mm - 0 W/m² -
1788088716 23.89° C 47% 1188.3 hPa 0 mm - 0 W/m² -
1788088412 24.44° C 45% 1188.4 hPa 0 mm - 0 W/m² -
1788088112 24.44° C 45% 1188.1 hPa 0 mm - 0 W/m² -
1788087808 24.44° C 43% 1188.2 hPa 0 mm - 0 W/m² -
1788087507 24.44° C 45% 1188.6 hPa 0 mm - 0 W/m² -
1788087215 24.44° C 45% 1188.3 hPa 0 mm - 0 W/m² -
1788086900 24.44° C 43% 1188.3 hPa 0 mm - 0 W/m² -
1788086596 24.44° C 45% 1188.4 hPa 0 mm - 0 W/m² -
1788086295 24.44° C 44% 1188.6 hPa 0 mm - 0 W/m² -
1788085991 24.44° C 44% 1188.6 hPa 0 mm - 0 W/m² -
1788085689 24.44° C 45% 1188.4 hPa 0 mm - 0 W/m² -
1788085385 24.44° C 44% 1188.6 hPa 0 mm - 0 W/m² -
1788085081 25° C 45% 1188.8 hPa 0 mm - 0 W/m² -
1788084776 24.44° C 43% 1188.6 hPa 0 mm - 0 W/m² -
1788084474 24.44° C 43% 1188.4 hPa 0 mm - 0 W/m² -
1788084170 23.89° C 44% 1188.4 hPa 0 mm - 0 W/m² -
1788083868 23.89° C 46% 1188.3 hPa 0 mm - 0 W/m² -
1788083565 23.89° C 47% 1188.3 hPa 0 mm - 0 W/m² -
1788083260 22.78° C 51% 1188.2 hPa 0 mm - 0 W/m² -
1788082957 22.78° C 56% 1188.4 hPa 0 mm - 0 W/m² -
1788082651 22.78° C 52% 1188.7 hPa 0 mm - 0 W/m² -
1788082348 22.78° C 52% 1189.2 hPa 0 mm - 0 W/m² -
1788082047 22.78° C 57% 1189.2 hPa 0 mm - 0 W/m² -

* Rain latest hour (hover to see other rain measurements)
** Current wind speed in m/s (hover to see current wind gust speed)